Tracking 35275 objects as of 8-Sep-2026
HD Live streaming from Space Station
objects crossing your sky now

STARLINK-32844

Track STARLINK-32844 now!
10-day predictions
STARLINK-32844 is classified as:


NORAD ID: 62820
Int'l Code: 2025-018Q
Launch date: January 24, 2025
Source: United States (US)
Launch site: AIR FORCE WESTERN TEST RANGE (AFWTR)
Your satellite tracking list
Your tracking list is empty




NASA's NSSDC Master Catalog

Two Line Element Set (TLE):
1 62820U 25018Q   26250.23549109  .00010498  00000-0  34946-3 0  9993
2 62820  53.1568 184.9301 0001206  88.2409 271.8731 15.31710949 90989
Source of the keplerian elements: AFSPC